• Join FlightAware (Why Join?)
  • Login
  • US Flag 
12:01PM EDT


 

Airport Tracker/Info


-or-


 

Live Flight TrackerFlight Track Log ✈ EJA122 ✈ 06-Jun-2013 ✈ KLAS - KOXR

Flight Track Log - Related Links

Times and Time Zones

All times are in EDT time to prevent confusion due to time zone crossing. See the EJA122 flight status page for this flight to view local times or setup timezone preferences in your user account.

Time Position Orientation Groundspeed Altitude Reporting Facility
EDT Latitude Longitude Course Direction KTS MPH feet Rate Location/Type
02:46PM 36.0606 -115.1761 208° Southwest 199 229 3,200  Level Los Angeles Center
02:46PM 36.0208 -115.2022 208° Southwest 217 250 5,500 2,880 Climbing Los Angeles Center
02:47PM 35.9928 -115.2503 234° Southwest 238 274 7,700 2,760 Climbing Los Angeles Center
02:48PM 35.9172 -115.2764 196° South 273 314 10,700 2,940 Climbing Los Angeles Center
02:49PM 35.8267 -115.2842 184° South 301 346 13,800 2,700 Climbing Los Angeles Center
02:50PM 35.7333 -115.2917 184° South 326 375 16,300 2,100 Climbing Los Angeles Center
02:51PM 35.6289 -115.3556 206° Southwest 365 420 18,200 1,620 Climbing Los Angeles Center
02:52PM 35.5561 -115.4569 229° Southwest 386 444 19,700 1,560 Climbing Los Angeles Center
02:54PM 35.4814 -115.5586 228° Southwest 396 456 21,500 1,080 Climbing Los Angeles Center
02:55PM 35.4072 -115.6575 227° Southwest 393 452 22,000 240 Climbing Los Angeles Center
02:56PM 35.3242 -115.7667 227° Southwest 414 476 22,000  Level Los Angeles Center
02:57PM 35.2453 -115.8736 228° Southwest 423 487 22,000  Level Los Angeles Center
02:58PM 35.1647 -115.9783 227° Southwest 430 495 22,000  Level Los Angeles Center
02:59PM 35.0803 -116.0894 227° Southwest 433 498 22,000  Level Los Angeles Center
03:00PM 34.9961 -116.1981 227° Southwest 436 502 22,000 -60 Level Los Angeles Center
03:01PM 34.9128 -116.3411 235° Southwest 440 506 21,900 -720 Descending Los Angeles Center
03:02PM 34.8858 -116.4792 257° West 426 490 20,500 -960 Descending Los Angeles Center
03:03PM 34.8647 -116.6178 260° West 416 479 20,000 -300 Descending Los Angeles Center
03:04PM 34.8425 -116.7594 259° West 423 487 20,000 -120 Level Los Angeles Center
03:05PM 34.8211 -116.8989 259° West 419 482 19,800 -1,560 Descending Los Angeles Center
03:06PM 34.7981 -117.0381 259° West 417 480 16,800 -2,400 Descending Los Angeles Center
03:07PM 34.7728 -117.2036 260° West 414 476 14,900 -1,380 Descending Los Angeles Center
03:08PM 34.7503 -117.3417 259° West 414 476 14,000 -480 Descending Los Angeles Center
03:09PM 34.7275 -117.4775 259° West 410 472 14,000  Level Los Angeles Center
03:10PM 34.7061 -117.6111 259° West 400 460 14,000 -240 Level Los Angeles Center
03:11PM 34.6847 -117.7428 259° West 395 455 13,500 -960 Descending Los Angeles Center
03:12PM 34.6636 -117.8750 259° West 399 459 12,100 -1,380 Descending Los Angeles Center
03:13PM 34.6428 -117.9958 258° West 368 423 10,700 -1,500 Descending Los Angeles Center
03:14PM 34.6103 -118.1225 253° West 316 364 9,000 -1,320 Descending Los Angeles Center
03:15PM 34.5847 -118.2075 250° West 301 346 8,000 -540 Descending Los Angeles Center
03:16PM 34.5475 -118.3169 248° West 294 338 8,000  Level Los Angeles Center
03:17PM 34.5164 -118.4078 247° West 293 337 8,000  Level Los Angeles Center
03:18PM 34.4853 -118.4989 248° West 291 335 8,000  Level Los Angeles Center
03:19PM 34.4553 -118.5886 248° West 288 331 8,000 -120 Level Los Angeles Center
03:20PM 34.4283 -118.6714 248° West 270 311 7,800 -960 Descending Los Angeles Center
03:21PM 34.3950 -118.7678 247° West 262 302 6,100 -1,380 Descending Los Angeles Center
03:22PM 34.3833 -118.7842 229° Southwest 258 297 6,000 -120 Descending Los Angeles Center
03:23PM 34.3692 -118.8428 254° West 245 282 6,000  Level Los Angeles Center
03:23PM 34.3594 -118.8597 235° Southwest 238 274 6,000  Level Los Angeles Center
03:24PM 34.3208 -118.8914 214° Southwest 249 287 6,000 -360 Level Los Angeles Center
03:25PM 34.2564 -118.9092 193° South 239 275 5,400 -960 Descending Los Angeles Center
03:26PM 34.1942 -118.9397 202° Southwest 256 295 4,000 -1,020 Descending Los Angeles Center
03:27PM 34.1944 -119.0025 270° West 211 243 3,300 -960 Descending Los Angeles Center
03:27PM 34.1978 -119.0267 279° West 164 189 2,800 -780 Descending Los Angeles Center
03:28PM 34.2008 -119.0619 276° West 192 221 2,500 -780 Descending Los Angeles Center
03:29PM 34.2003 -119.1144 269° West 154 177 1,400 -900 Descending Los Angeles Center
03:30PM 34.2019 -119.1608 273° West 127 146 700 -720 Descending Los Angeles Center